{"data":{"norad_id":48467,"intl_designator":"2021-040AR","name":"STARLINK-2659","alt_names":[],"object_type":"PAYLOAD","status":"ACTIVE","operator":null,"country":"US","launch_date":"2021-05-09","launch_site_code":"AFETR","launch_vehicle":null,"mission":null,"orbit_class":"UNKNOWN","rcs_meters":null,"size_class":null,"mass_kg":null,"dimensions":null,"purposes":["comms"],"wikipedia_slug":null,"has_3d_model":false,"image_url":null,"decayed_at":null,"tle_current":{"epoch":"2026-05-25T04:00:54.215424Z","epoch_age_seconds":56764,"freshness":"FRESH","line1":"1 48467U 21040AR  26145.16729416  .00000781  00000+0  36929-4 0  9998","line2":"2 48467  53.1569 195.2929 0001328  74.1576 285.9571 15.31706164278223","mean_motion":15.31706164,"eccentricity":0.0001328,"inclination_deg":53.1569,"raan_deg":195.2929,"arg_perigee_deg":74.1576,"mean_anomaly_deg":285.9571,"bstar":3.6929e-5,"rev_number":27822,"period_min":94.012809626586,"perigee_km":469.81209229918,"apogee_km":471.63114914885,"semimajor_km":6848.858620724,"source":"CELESTRAK","updated_at":"2026-05-25T13:38:16.720446Z"}}}